User: anonymous   Login
Location: Unspecified
(0.0000°N, 0.0000°E)
Time: 19:17:40
(UTC+01:00)
Language:

Cosmos 773 Rocket - Orbit

View from above orbital plane
View from above orbital plane
View from above satellite
View from above satellite

Ground track
Ground track

The orbit data is extracted from the following two-line orbital elements,

1 08344U 75094B   15024.32199972  .00000131  00000-0  50866-4 0  6720
2 08344 074.0589 297.5038 0020990 056.2797 081.9021 14.38894412 59856
Epoch (UTC): 24 January 2015 07:43:40
Eccentricity: 0.0020990
inclination: 74.0589°
perigee height: 747 km
apogee height: 777 km
right ascension of ascending node: 297.5038°
argument of perigee: 56.2797°
revolutions per day: 14.38894412
mean anomaly at epoch: 81.9021°
orbit number at epoch: 5985

The dashed part of the orbit path shows where the satellite is in the earth's shadow,  

DLR